Terug naar catalogus

TOMORROW-S5

ActiefWeerSSO
NORAD 63234·PAYLOAD·🇺🇸 United States

Gelanceerd Mar 15, 2025 vanaf Vandenberg Space Force Base

Loading…

Volgende Passages (komende 24 uur)

TLE

VersSource: Space-Track

Epoch: Sep 14, 2026, 12:08 UTC

1 63234U 25052AA  26257.50610777  .00003787  00000-0  16340-3 0  9999
2 63234  97.3848 148.7795 0006278 183.0069 177.1131 15.23117789 83433

Volg TOMORROW-S5 in realtime met AllMySat

Download on the App Store